Zurück zum Katalog

STARLINK-36239

AktivKommunikationVLEO
NORAD 67196·PAYLOAD·🇺🇸 United States

Gestartet Dec 17, 2025 von Vandenberg Space Force Base

Loading…

Nächste Überflüge (nächste 24 Stunden)

TLE

AktuellSource: CelesTrak SupGP

Epoche: Sep 14, 2026, 21:34 UTC

1 67196C 25304E   26257.89909722  .00031407  00000+0  26315-2 0  2571
2 67196  70.0010  57.5726 0003225 269.0324  30.3390 14.98321668    16

Verfolge STARLINK-36239 in Echtzeit mit AllMySat

Download on the App Store